Year,Month,Day,Hour,Minute,Value (Times are PST for temperature in C)
2017,11,22,00,00,6.00
2017,11,22,00,01,6.00
2017,11,22,00,02,6.10
2017,11,22,00,03,6.10
2017,11,22,00,04,6.10
2017,11,22,00,05,6.10
2017,11,22,00,06,6.10
2017,11,22,00,07,6.10
2017,11,22,00,08,6.10
2017,11,22,00,09,6.10
2017,11,22,00,10,6.10
2017,11,22,00,11,6.10
2017,11,22,00,12,6.10
2017,11,22,00,13,6.10
2017,11,22,00,14,6.10
2017,11,22,00,15,6.10
2017,11,22,00,16,6.10
2017,11,22,00,17,6.10
2017,11,22,00,18,6.10
2017,11,22,00,19,6.10
2017,11,22,00,20,6.10
2017,11,22,00,21,6.10
2017,11,22,00,22,6.10
2017,11,22,00,23,6.10
2017,11,22,00,24,6.10
2017,11,22,00,25,6.10
2017,11,22,00,26,6.10
2017,11,22,00,27,6.10
2017,11,22,00,28,6.10
2017,11,22,00,29,6.10
2017,11,22,00,30,6.10
2017,11,22,00,31,6.10
2017,11,22,00,32,6.10
2017,11,22,00,33,6.10
2017,11,22,00,34,6.10
2017,11,22,00,35,6.10
2017,11,22,00,36,6.10
2017,11,22,00,37,6.10
2017,11,22,00,38,6.10
2017,11,22,00,39,6.10
2017,11,22,00,40,6.10
2017,11,22,00,41,6.10
2017,11,22,00,42,6.10
2017,11,22,00,43,6.10
2017,11,22,00,44,6.10
2017,11,22,00,45,6.10
2017,11,22,00,46,6.10
2017,11,22,00,47,6.10
2017,11,22,00,48,6.10
2017,11,22,00,49,6.10
2017,11,22,00,50,6.10
2017,11,22,00,51,6.10
2017,11,22,00,52,6.10
2017,11,22,00,53,6.10
2017,11,22,00,54,6.10
2017,11,22,00,55,6.10
2017,11,22,00,56,6.10
2017,11,22,00,57,6.10
2017,11,22,00,58,6.10
2017,11,22,00,59,6.10
2017,11,22,01,00,6.10
2017,11,22,01,01,6.10
2017,11,22,01,02,6.10
2017,11,22,01,03,6.10
2017,11,22,01,04,6.10
2017,11,22,01,05,6.10
2017,11,22,01,06,6.10
2017,11,22,01,07,6.10
2017,11,22,01,08,6.10
2017,11,22,01,09,6.10
2017,11,22,01,10,6.10
2017,11,22,01,11,6.10
2017,11,22,01,12,6.10
2017,11,22,01,13,6.10
2017,11,22,01,14,6.10
2017,11,22,01,15,6.10
2017,11,22,01,16,6.10
2017,11,22,01,17,6.10
2017,11,22,01,18,6.10
2017,11,22,01,19,6.10
2017,11,22,01,20,6.10
2017,11,22,01,21,6.10
2017,11,22,01,22,6.10
2017,11,22,01,23,6.10
2017,11,22,01,24,6.10
2017,11,22,01,25,6.10
2017,11,22,01,26,6.10
2017,11,22,01,27,6.10
2017,11,22,01,28,6.10
2017,11,22,01,29,6.10
2017,11,22,01,30,6.10
2017,11,22,01,31,6.10
2017,11,22,01,32,6.10
2017,11,22,01,33,6.10
2017,11,22,01,34,6.10
2017,11,22,01,35,6.10
2017,11,22,01,36,6.10
2017,11,22,01,37,6.10
2017,11,22,01,38,6.10
2017,11,22,01,39,6.10
2017,11,22,01,40,6.10
2017,11,22,01,41,6.10
2017,11,22,01,42,6.10
2017,11,22,01,43,6.10
2017,11,22,01,44,6.10
2017,11,22,01,45,6.10
2017,11,22,01,46,6.10
2017,11,22,01,47,6.10
2017,11,22,01,48,6.10
2017,11,22,01,49,6.10
2017,11,22,01,50,6.10
2017,11,22,01,51,6.10
2017,11,22,01,52,6.10
2017,11,22,01,53,6.10
2017,11,22,01,54,6.10
2017,11,22,01,55,6.10
2017,11,22,01,56,6.10
2017,11,22,01,57,6.10
2017,11,22,01,58,6.10
2017,11,22,01,59,6.10
2017,11,22,02,00,6.10
2017,11,22,02,01,6.10
2017,11,22,02,02,6.10
2017,11,22,02,03,6.10
2017,11,22,02,04,6.10
2017,11,22,02,05,6.10
2017,11,22,02,06,6.10
2017,11,22,02,07,6.10
2017,11,22,02,08,6.10
2017,11,22,02,09,6.20
2017,11,22,02,10,6.20
2017,11,22,02,11,6.20
2017,11,22,02,12,6.20
2017,11,22,02,13,6.20
2017,11,22,02,14,6.20
2017,11,22,02,15,6.20
2017,11,22,02,16,6.20
2017,11,22,02,17,6.20
2017,11,22,02,18,6.20
2017,11,22,02,19,6.20
2017,11,22,02,20,6.20
2017,11,22,02,21,6.20
2017,11,22,02,22,6.20
2017,11,22,02,23,6.20
2017,11,22,02,24,6.20
2017,11,22,02,25,6.20
2017,11,22,02,26,6.20
2017,11,22,02,27,6.20
2017,11,22,02,28,6.20
2017,11,22,02,29,6.20
2017,11,22,02,30,6.20
2017,11,22,02,31,6.20
2017,11,22,02,32,6.20
2017,11,22,02,33,6.20
2017,11,22,02,34,6.20
2017,11,22,02,35,6.20
2017,11,22,02,36,6.20
2017,11,22,02,37,6.20
2017,11,22,02,38,6.20
2017,11,22,02,39,6.20
2017,11,22,02,40,6.20
2017,11,22,02,41,6.20
2017,11,22,02,42,6.20
2017,11,22,02,43,6.20
2017,11,22,02,44,6.20
2017,11,22,02,45,6.30
2017,11,22,02,46,6.30
2017,11,22,02,47,6.30
2017,11,22,02,48,6.20
2017,11,22,02,49,6.20
2017,11,22,02,50,6.20
2017,11,22,02,51,6.20
2017,11,22,02,52,6.20
2017,11,22,02,53,6.20
2017,11,22,02,54,6.20
2017,11,22,02,55,6.20
2017,11,22,02,56,6.20
2017,11,22,02,57,6.20
2017,11,22,02,58,6.20
2017,11,22,02,59,6.20
2017,11,22,03,00,6.20
2017,11,22,03,01,6.20
2017,11,22,03,02,6.20
2017,11,22,03,03,6.20
2017,11,22,03,04,6.20
2017,11,22,03,05,6.20
2017,11,22,03,06,6.20
2017,11,22,03,07,6.20
2017,11,22,03,08,6.20
2017,11,22,03,09,6.20
2017,11,22,03,10,6.20
2017,11,22,03,11,6.20
2017,11,22,03,12,6.30
2017,11,22,03,13,6.30
2017,11,22,03,14,6.30
2017,11,22,03,15,6.30
2017,11,22,03,16,6.30
2017,11,22,03,17,6.30
2017,11,22,03,18,6.30
2017,11,22,03,19,6.30
2017,11,22,03,20,6.30
2017,11,22,03,21,6.30
2017,11,22,03,22,6.30
2017,11,22,03,23,6.30
2017,11,22,03,24,6.30
2017,11,22,03,25,6.30
2017,11,22,03,26,6.30
2017,11,22,03,27,6.30
2017,11,22,03,28,6.30
2017,11,22,03,29,6.30
2017,11,22,03,30,6.30
2017,11,22,03,31,6.30
2017,11,22,03,32,6.30
2017,11,22,03,33,6.30
2017,11,22,03,34,6.30
2017,11,22,03,35,6.30
2017,11,22,03,36,6.30
2017,11,22,03,37,6.30
2017,11,22,03,38,6.30
2017,11,22,03,39,6.30
2017,11,22,03,40,6.30
2017,11,22,03,41,6.30
2017,11,22,03,42,6.30
2017,11,22,03,43,6.30
2017,11,22,03,44,6.30
2017,11,22,03,45,6.30
2017,11,22,03,46,6.30
2017,11,22,03,47,6.30
2017,11,22,03,48,6.30
2017,11,22,03,49,6.30
2017,11,22,03,50,6.30
2017,11,22,03,51,6.30
2017,11,22,03,52,6.30
2017,11,22,03,53,6.30
2017,11,22,03,54,6.30
2017,11,22,03,55,6.30
2017,11,22,03,56,6.30
2017,11,22,03,57,6.30
2017,11,22,03,58,6.30
2017,11,22,03,59,6.30
2017,11,22,04,00,6.30
2017,11,22,04,01,6.30
2017,11,22,04,02,6.30
2017,11,22,04,03,6.30
2017,11,22,04,04,6.30
2017,11,22,04,05,6.30
2017,11,22,04,06,6.30
2017,11,22,04,07,6.30
2017,11,22,04,08,6.30
2017,11,22,04,09,6.30
2017,11,22,04,10,6.30
2017,11,22,04,11,6.30
2017,11,22,04,12,6.30
2017,11,22,04,13,6.30
2017,11,22,04,14,6.30
2017,11,22,04,15,6.30
2017,11,22,04,16,6.30
2017,11,22,04,17,6.30
2017,11,22,04,18,6.30
2017,11,22,04,19,6.30
2017,11,22,04,20,6.30
2017,11,22,04,21,6.30
2017,11,22,04,22,6.30
2017,11,22,04,23,6.30
2017,11,22,04,24,6.30
2017,11,22,04,25,6.40
2017,11,22,04,26,6.40
2017,11,22,04,27,6.40
2017,11,22,04,28,6.40
2017,11,22,04,29,6.40
2017,11,22,04,30,6.40
2017,11,22,04,31,6.40
2017,11,22,04,32,6.40
2017,11,22,04,33,6.40
2017,11,22,04,34,6.30
2017,11,22,04,35,6.40
2017,11,22,04,36,6.40
2017,11,22,04,37,6.40
2017,11,22,04,38,6.40
2017,11,22,04,39,6.30
2017,11,22,04,40,6.30
2017,11,22,04,41,6.30
2017,11,22,04,42,6.40
2017,11,22,04,43,6.40
2017,11,22,04,44,6.40
2017,11,22,04,45,6.40
2017,11,22,04,46,6.40
2017,11,22,04,47,6.40
2017,11,22,04,48,6.40
2017,11,22,04,49,6.40
2017,11,22,04,50,6.40
2017,11,22,04,51,6.40
2017,11,22,04,52,6.40
2017,11,22,04,53,6.40
2017,11,22,04,54,6.40
2017,11,22,04,55,6.40
2017,11,22,04,56,6.40
2017,11,22,04,57,6.40
2017,11,22,04,58,6.40
2017,11,22,04,59,6.50
2017,11,22,05,00,6.50
2017,11,22,05,01,6.50
2017,11,22,05,02,6.50
2017,11,22,05,03,6.50
2017,11,22,05,04,6.50
2017,11,22,05,05,6.50
2017,11,22,05,06,6.50
2017,11,22,05,07,6.50
2017,11,22,05,08,6.60
2017,11,22,05,09,6.60
2017,11,22,05,10,6.60
2017,11,22,05,11,6.60
2017,11,22,05,12,6.60
2017,11,22,05,13,6.60
2017,11,22,05,14,6.60
2017,11,22,05,15,6.60
2017,11,22,05,16,6.70
2017,11,22,05,17,6.70
2017,11,22,05,18,6.70
2017,11,22,05,19,6.70
2017,11,22,05,20,6.70
2017,11,22,05,21,6.70
2017,11,22,05,22,6.70
2017,11,22,05,23,6.70
2017,11,22,05,24,6.70
2017,11,22,05,25,6.70
2017,11,22,05,26,6.70
2017,11,22,05,27,6.70
2017,11,22,05,28,6.70
2017,11,22,05,29,6.70
2017,11,22,05,30,6.70
2017,11,22,05,31,6.70
2017,11,22,05,32,6.70
2017,11,22,05,33,6.70
2017,11,22,05,34,6.70
2017,11,22,05,35,6.70
2017,11,22,05,36,6.80
2017,11,22,05,37,6.80
2017,11,22,05,38,6.90
2017,11,22,05,39,6.90
2017,11,22,05,40,7.00
2017,11,22,05,41,7.00
2017,11,22,05,42,7.10
2017,11,22,05,43,7.20
2017,11,22,05,44,7.30
2017,11,22,05,45,7.30
2017,11,22,05,46,7.50
2017,11,22,05,47,7.60
2017,11,22,05,48,7.70
2017,11,22,05,49,7.90
2017,11,22,05,50,8.00
2017,11,22,05,51,8.10
2017,11,22,05,52,8.10
2017,11,22,05,53,8.20
2017,11,22,05,54,8.30
2017,11,22,05,55,8.40
2017,11,22,05,56,8.50
2017,11,22,05,57,8.70
2017,11,22,05,58,8.70
2017,11,22,05,59,8.80
2017,11,22,06,00,8.80
2017,11,22,06,01,8.80
2017,11,22,06,02,8.90
2017,11,22,06,03,8.90
2017,11,22,06,04,8.90
2017,11,22,06,05,8.90
2017,11,22,06,06,8.90
2017,11,22,06,07,8.90
2017,11,22,06,08,8.90
2017,11,22,06,09,8.90
2017,11,22,06,10,8.90
2017,11,22,06,11,8.90
2017,11,22,06,12,8.90
2017,11,22,06,13,9.00
2017,11,22,06,14,9.00
2017,11,22,06,15,9.00
2017,11,22,06,16,9.00
2017,11,22,06,17,9.00
2017,11,22,06,18,9.00
2017,11,22,06,19,9.10
2017,11,22,06,20,9.10
2017,11,22,06,21,9.10
2017,11,22,06,22,9.10
2017,11,22,06,23,9.10
2017,11,22,06,24,9.20
2017,11,22,06,25,9.20
2017,11,22,06,26,9.20
2017,11,22,06,27,9.20
2017,11,22,06,28,9.20
2017,11,22,06,29,9.20
2017,11,22,06,30,9.30
2017,11,22,06,31,9.30
2017,11,22,06,32,9.30
2017,11,22,06,33,9.30
2017,11,22,06,34,9.40
2017,11,22,06,35,9.40
2017,11,22,06,36,9.40
2017,11,22,06,37,9.40
2017,11,22,06,38,9.40
2017,11,22,06,39,9.50
2017,11,22,06,40,9.50
2017,11,22,06,41,9.50
2017,11,22,06,42,9.50
2017,11,22,06,43,9.60
2017,11,22,06,44,9.60
2017,11,22,06,45,9.60
2017,11,22,06,46,9.60
2017,11,22,06,47,9.60
2017,11,22,06,48,9.70
2017,11,22,06,49,9.70
2017,11,22,06,50,9.70
2017,11,22,06,51,9.70
2017,11,22,06,52,9.70
2017,11,22,06,53,9.70
2017,11,22,06,54,9.70
2017,11,22,06,55,9.70
2017,11,22,06,56,9.70
2017,11,22,06,57,9.70
2017,11,22,06,58,9.70
2017,11,22,06,59,9.70
2017,11,22,07,00,9.70
2017,11,22,07,01,9.70
2017,11,22,07,02,9.70
2017,11,22,07,03,9.70
2017,11,22,07,04,9.70
2017,11,22,07,05,9.70
2017,11,22,07,06,9.70
2017,11,22,07,07,9.70
2017,11,22,07,08,9.70
2017,11,22,07,09,9.70
2017,11,22,07,10,9.70
2017,11,22,07,11,9.70
2017,11,22,07,12,9.70
2017,11,22,07,13,9.70
2017,11,22,07,14,9.70
2017,11,22,07,15,9.70
2017,11,22,07,16,9.70
2017,11,22,07,17,9.70
2017,11,22,07,18,9.70
2017,11,22,07,19,9.70
2017,11,22,07,20,9.70
2017,11,22,07,21,9.80
2017,11,22,07,22,9.80
2017,11,22,07,23,9.80
2017,11,22,07,24,9.80
2017,11,22,07,25,9.80
2017,11,22,07,26,9.80
2017,11,22,07,27,9.90
2017,11,22,07,28,9.90
2017,11,22,07,29,9.90
2017,11,22,07,30,9.90
2017,11,22,07,31,9.90
2017,11,22,07,32,9.90
2017,11,22,07,33,9.90
2017,11,22,07,34,9.90
2017,11,22,07,35,9.90
2017,11,22,07,36,9.90
2017,11,22,07,37,9.90
2017,11,22,07,38,9.90
2017,11,22,07,39,9.90
2017,11,22,07,40,9.90
2017,11,22,07,41,9.90
2017,11,22,07,42,9.90
2017,11,22,07,43,9.90
2017,11,22,07,44,9.90
2017,11,22,07,45,9.90
2017,11,22,07,46,9.90
2017,11,22,07,47,9.90
2017,11,22,07,48,10.00
2017,11,22,07,49,10.00
2017,11,22,07,50,10.00
2017,11,22,07,51,10.00
2017,11,22,07,52,10.00
2017,11,22,07,53,10.00
2017,11,22,07,54,10.00
2017,11,22,07,55,10.00
2017,11,22,07,56,10.10
2017,11,22,07,57,10.10
2017,11,22,07,58,10.10
2017,11,22,07,59,10.10
2017,11,22,08,00,10.10
2017,11,22,08,01,10.10
2017,11,22,08,02,10.10
2017,11,22,08,03,10.10
2017,11,22,08,04,10.20
2017,11,22,08,05,10.20
2017,11,22,08,06,10.10
2017,11,22,08,07,10.20
2017,11,22,08,08,10.20
2017,11,22,08,09,10.20
2017,11,22,08,10,10.20
2017,11,22,08,11,10.20
2017,11,22,08,12,10.20
2017,11,22,08,13,10.20
2017,11,22,08,14,10.20
2017,11,22,08,15,10.20
2017,11,22,08,16,10.20
2017,11,22,08,17,10.20
2017,11,22,08,18,10.20
2017,11,22,08,19,10.20
2017,11,22,08,20,10.20
2017,11,22,08,21,10.20
2017,11,22,08,22,10.30
2017,11,22,08,23,10.30
2017,11,22,08,24,10.30
2017,11,22,08,25,10.30
2017,11,22,08,26,10.30
2017,11,22,08,27,10.40
2017,11,22,08,28,10.40
2017,11,22,08,29,10.50
2017,11,22,08,30,10.50
2017,11,22,08,31,10.60
2017,11,22,08,32,10.60
2017,11,22,08,33,10.60
2017,11,22,08,34,10.60
2017,11,22,08,35,10.60
2017,11,22,08,36,10.60
2017,11,22,08,37,10.60
2017,11,22,08,38,10.60
2017,11,22,08,39,10.60
2017,11,22,08,40,10.60
2017,11,22,08,41,10.60
2017,11,22,08,42,10.70
2017,11,22,08,43,10.70
2017,11,22,08,44,10.70
2017,11,22,08,45,10.70
2017,11,22,08,46,10.70
2017,11,22,08,47,10.70
2017,11,22,08,48,10.70
2017,11,22,08,49,10.70
2017,11,22,08,50,10.70
2017,11,22,08,51,10.70
2017,11,22,08,52,10.70
2017,11,22,08,53,10.70
2017,11,22,08,54,10.70
2017,11,22,08,55,10.70
2017,11,22,08,56,10.70
2017,11,22,08,57,10.80
2017,11,22,08,58,10.80
2017,11,22,08,59,10.80
2017,11,22,09,00,10.80
2017,11,22,09,01,10.80
2017,11,22,09,02,10.80
2017,11,22,09,03,10.80
2017,11,22,09,04,10.80
2017,11,22,09,05,10.80
2017,11,22,09,06,10.80
2017,11,22,09,07,10.80
2017,11,22,09,08,10.80
2017,11,22,09,09,10.80
2017,11,22,09,10,10.80
2017,11,22,09,11,10.80
2017,11,22,09,12,10.80
2017,11,22,09,13,10.80
2017,11,22,09,14,10.70
2017,11,22,09,15,10.70
2017,11,22,09,16,10.70
2017,11,22,09,17,10.70
2017,11,22,09,18,10.70
2017,11,22,09,19,10.70
2017,11,22,09,20,10.70
2017,11,22,09,21,10.70
2017,11,22,09,22,10.70
2017,11,22,09,23,10.70
2017,11,22,09,24,10.70
2017,11,22,09,25,10.70
2017,11,22,09,26,10.70
2017,11,22,09,27,10.70
2017,11,22,09,28,10.70
2017,11,22,09,29,10.70
2017,11,22,09,30,10.70
2017,11,22,09,31,10.70
2017,11,22,09,32,10.70
2017,11,22,09,33,10.70
2017,11,22,09,34,10.70
2017,11,22,09,35,10.70
2017,11,22,09,36,10.70
2017,11,22,09,37,10.70
2017,11,22,09,38,10.70
2017,11,22,09,39,10.70
2017,11,22,09,40,10.70
2017,11,22,09,41,10.80
2017,11,22,09,42,10.80
2017,11,22,09,43,10.80
2017,11,22,09,44,10.80
2017,11,22,09,45,10.80
2017,11,22,09,46,10.80
2017,11,22,09,47,10.80
2017,11,22,09,48,10.80
2017,11,22,09,49,10.80
2017,11,22,09,50,10.80
2017,11,22,09,51,10.80
2017,11,22,09,52,10.80
2017,11,22,09,53,10.80
2017,11,22,09,54,10.80
2017,11,22,09,55,10.80
2017,11,22,09,56,10.80
2017,11,22,09,57,10.80
2017,11,22,09,58,10.80
2017,11,22,09,59,10.80
2017,11,22,10,00,10.80
2017,11,22,10,01,10.80
2017,11,22,10,02,10.90
2017,11,22,10,03,10.90
2017,11,22,10,04,10.90
2017,11,22,10,05,10.90
2017,11,22,10,06,10.90
2017,11,22,10,07,10.90
2017,11,22,10,08,10.90
2017,11,22,10,09,10.90
2017,11,22,10,10,10.90
2017,11,22,10,11,10.90
2017,11,22,10,12,10.90
2017,11,22,10,13,10.90
2017,11,22,10,14,10.90
2017,11,22,10,15,10.90
2017,11,22,10,16,10.90
2017,11,22,10,17,10.90
2017,11,22,10,18,10.90
2017,11,22,10,19,10.90
2017,11,22,10,20,10.90
2017,11,22,10,21,10.80
2017,11,22,10,22,10.90
2017,11,22,10,23,10.90
2017,11,22,10,24,10.90
2017,11,22,10,25,10.90
2017,11,22,10,26,10.90
2017,11,22,10,27,10.90
2017,11,22,10,28,10.90
2017,11,22,10,29,11.00
2017,11,22,10,30,10.90
2017,11,22,10,31,11.00
2017,11,22,10,32,11.00
2017,11,22,10,33,11.00
2017,11,22,10,34,11.00
2017,11,22,10,35,11.00
2017,11,22,10,36,11.00
2017,11,22,10,37,11.00
2017,11,22,10,38,11.00
2017,11,22,10,39,11.00
2017,11,22,10,40,10.90
2017,11,22,10,41,10.90
2017,11,22,10,42,10.90
2017,11,22,10,43,10.90
2017,11,22,10,44,10.90
2017,11,22,10,45,10.90
2017,11,22,10,46,10.90
2017,11,22,10,47,10.90
2017,11,22,10,48,10.90
2017,11,22,10,49,10.90
2017,11,22,10,50,10.90
2017,11,22,10,51,10.90
2017,11,22,10,52,10.90
2017,11,22,10,53,10.90
2017,11,22,10,54,10.90
2017,11,22,10,55,10.90
2017,11,22,10,56,10.90
2017,11,22,10,57,10.90
2017,11,22,10,58,10.90
2017,11,22,10,59,10.90
2017,11,22,11,00,11.00
2017,11,22,11,01,11.00
2017,11,22,11,02,11.00
2017,11,22,11,03,11.00
2017,11,22,11,04,11.00
2017,11,22,11,05,11.10
2017,11,22,11,06,11.10
2017,11,22,11,07,11.10
2017,11,22,11,08,11.10
2017,11,22,11,09,11.10
2017,11,22,11,10,11.10
2017,11,22,11,11,11.10
2017,11,22,11,12,11.10
2017,11,22,11,13,11.10
2017,11,22,11,14,11.10
2017,11,22,11,15,11.10
2017,11,22,11,16,11.10
2017,11,22,11,17,11.10
2017,11,22,11,18,11.10
2017,11,22,11,19,11.10
2017,11,22,11,20,11.10
2017,11,22,11,21,11.10
2017,11,22,11,22,11.10
2017,11,22,11,23,11.10
2017,11,22,11,24,11.10
2017,11,22,11,25,11.10
2017,11,22,11,26,11.10
2017,11,22,11,27,11.20
2017,11,22,11,28,11.20
2017,11,22,11,29,11.20
2017,11,22,11,30,11.20
2017,11,22,11,31,11.20
2017,11,22,11,32,11.20
2017,11,22,11,33,11.20
2017,11,22,11,34,11.20
2017,11,22,11,35,11.20
2017,11,22,11,36,11.20
2017,11,22,11,37,11.20
2017,11,22,11,38,11.20
2017,11,22,11,39,11.20
2017,11,22,11,40,11.20
2017,11,22,11,41,11.20
2017,11,22,11,42,11.20
2017,11,22,11,43,11.20
2017,11,22,11,44,11.20
2017,11,22,11,45,11.10
2017,11,22,11,46,11.10
2017,11,22,11,47,11.10
2017,11,22,11,48,11.10
2017,11,22,11,49,11.10
2017,11,22,11,50,11.10
2017,11,22,11,51,11.00
2017,11,22,11,52,11.00
2017,11,22,11,53,11.00
2017,11,22,11,54,11.00
2017,11,22,11,55,11.00
2017,11,22,11,56,11.00
2017,11,22,11,57,11.00
2017,11,22,11,58,11.00
2017,11,22,11,59,11.00
2017,11,22,12,00,11.00
2017,11,22,12,01,11.00
2017,11,22,12,02,11.00
2017,11,22,12,03,11.10
2017,11,22,12,04,11.10
2017,11,22,12,05,11.10
2017,11,22,12,06,11.10
2017,11,22,12,07,11.20
2017,11,22,12,08,11.20
2017,11,22,12,09,11.20
2017,11,22,12,10,11.20
2017,11,22,12,11,11.20
2017,11,22,12,12,11.30
2017,11,22,12,13,11.30
2017,11,22,12,14,11.30
2017,11,22,12,15,11.30
2017,11,22,12,16,11.30
2017,11,22,12,17,11.30
2017,11,22,12,18,11.30
2017,11,22,12,19,11.30
2017,11,22,12,20,11.30
2017,11,22,12,21,11.30
2017,11,22,12,22,11.30
2017,11,22,12,23,11.30
2017,11,22,12,24,11.30
2017,11,22,12,25,11.30
2017,11,22,12,26,11.30
2017,11,22,12,27,11.40
2017,11,22,12,28,11.40
2017,11,22,12,29,11.40
2017,11,22,12,30,11.40
2017,11,22,12,31,11.50
2017,11,22,12,32,11.50
2017,11,22,12,33,11.50
2017,11,22,12,34,11.60
2017,11,22,12,35,11.60
2017,11,22,12,36,11.60
2017,11,22,12,37,11.70
2017,11,22,12,38,11.70
2017,11,22,12,39,11.70
2017,11,22,12,40,11.70
2017,11,22,12,41,11.70
2017,11,22,12,42,11.80
2017,11,22,12,43,11.80
2017,11,22,12,44,11.80
2017,11,22,12,45,11.80
2017,11,22,12,46,11.90
2017,11,22,12,47,11.90
2017,11,22,12,48,11.90
2017,11,22,12,49,11.90
2017,11,22,12,50,11.90
2017,11,22,12,51,11.90
2017,11,22,12,52,12.00
2017,11,22,12,53,12.00
2017,11,22,12,54,12.00
2017,11,22,12,55,11.90
2017,11,22,12,56,11.90
2017,11,22,12,57,11.90
2017,11,22,12,58,11.90
2017,11,22,12,59,12.00
2017,11,22,13,00,12.00
2017,11,22,13,01,12.00
2017,11,22,13,02,12.00
2017,11,22,13,03,12.00
2017,11,22,13,04,12.00
2017,11,22,13,05,12.10
2017,11,22,13,06,12.10
2017,11,22,13,07,12.10
2017,11,22,13,08,12.10
2017,11,22,13,09,12.10
2017,11,22,13,10,12.10
2017,11,22,13,11,12.10
2017,11,22,13,12,12.10
2017,11,22,13,13,12.10
2017,11,22,13,14,12.10
2017,11,22,13,15,12.20
2017,11,22,13,16,12.20
2017,11,22,13,17,12.20
2017,11,22,13,18,12.20
2017,11,22,13,19,12.20
2017,11,22,13,20,12.20
2017,11,22,13,21,12.30
2017,11,22,13,22,12.30
2017,11,22,13,23,12.30
2017,11,22,13,24,12.30
2017,11,22,13,25,12.30
2017,11,22,13,26,12.30
2017,11,22,13,27,12.30
2017,11,22,13,28,12.30
2017,11,22,13,29,12.30
2017,11,22,13,30,12.30
2017,11,22,13,31,12.30
2017,11,22,13,32,12.30
2017,11,22,13,33,12.30
2017,11,22,13,34,12.30
2017,11,22,13,35,12.30
2017,11,22,13,36,12.30
2017,11,22,13,37,12.30
2017,11,22,13,38,12.30
2017,11,22,13,39,12.30
2017,11,22,13,40,12.30
2017,11,22,13,41,12.30
2017,11,22,13,42,12.30
2017,11,22,13,43,12.30
2017,11,22,13,44,12.30
2017,11,22,13,45,12.30
2017,11,22,13,46,12.30
2017,11,22,13,47,12.30
2017,11,22,13,48,12.30
2017,11,22,13,49,12.30
2017,11,22,13,50,12.30
2017,11,22,13,51,12.30
2017,11,22,13,52,12.30
2017,11,22,13,53,12.30
2017,11,22,13,54,12.30
2017,11,22,13,55,12.30
2017,11,22,13,56,12.30
2017,11,22,13,57,12.40
2017,11,22,13,58,12.40
2017,11,22,13,59,12.40
2017,11,22,14,00,12.40
2017,11,22,14,01,12.40
2017,11,22,14,02,12.40
2017,11,22,14,03,12.40
2017,11,22,14,04,12.40
2017,11,22,14,05,12.40
2017,11,22,14,06,12.40
2017,11,22,14,07,12.40
2017,11,22,14,08,12.40
2017,11,22,14,09,12.40
2017,11,22,14,10,12.40
2017,11,22,14,11,12.40
2017,11,22,14,12,12.40
2017,11,22,14,13,12.40
2017,11,22,14,14,12.30
2017,11,22,14,15,12.30
2017,11,22,14,16,12.30
2017,11,22,14,17,12.30
2017,11,22,14,18,12.30
2017,11,22,14,19,12.30
2017,11,22,14,20,12.30
2017,11,22,14,21,12.30
2017,11,22,14,22,12.30
2017,11,22,14,23,12.30
2017,11,22,14,24,12.30
2017,11,22,14,25,12.30
2017,11,22,14,26,12.30
2017,11,22,14,27,12.30
2017,11,22,14,28,12.20
2017,11,22,14,29,12.20
2017,11,22,14,30,12.20
2017,11,22,14,31,12.20
2017,11,22,14,32,12.20
2017,11,22,14,33,12.20
2017,11,22,14,34,12.30
2017,11,22,14,35,12.30
2017,11,22,14,36,12.30
2017,11,22,14,37,12.30
2017,11,22,14,38,12.30
2017,11,22,14,39,12.30
2017,11,22,14,40,12.30
2017,11,22,14,41,12.30
2017,11,22,14,42,12.40
2017,11,22,14,43,12.40
2017,11,22,14,44,12.40
2017,11,22,14,45,12.40
2017,11,22,14,46,12.40
2017,11,22,14,47,12.40
2017,11,22,14,48,12.50
2017,11,22,14,49,12.50
2017,11,22,14,50,12.60
2017,11,22,14,51,12.60
2017,11,22,14,52,12.60
2017,11,22,14,53,12.60
2017,11,22,14,54,12.60
2017,11,22,14,55,12.70
2017,11,22,14,56,12.70
2017,11,22,14,57,12.70
2017,11,22,14,58,12.70
2017,11,22,14,59,12.70
2017,11,22,15,00,12.70
2017,11,22,15,01,12.70
2017,11,22,15,02,12.70
2017,11,22,15,03,12.70
2017,11,22,15,04,12.70
2017,11,22,15,05,12.70
2017,11,22,15,06,12.70
2017,11,22,15,07,12.70
2017,11,22,15,08,12.60
2017,11,22,15,09,12.70
2017,11,22,15,10,12.70
2017,11,22,15,11,12.70
2017,11,22,15,12,12.70
2017,11,22,15,13,12.70
2017,11,22,15,14,12.70
2017,11,22,15,15,12.70
2017,11,22,15,16,12.70
2017,11,22,15,17,12.70
2017,11,22,15,18,12.70
2017,11,22,15,19,12.70
2017,11,22,15,20,12.60
2017,11,22,15,21,12.60
2017,11,22,15,22,12.60
2017,11,22,15,23,12.60
2017,11,22,15,24,12.60
2017,11,22,15,25,12.60
2017,11,22,15,26,12.70
2017,11,22,15,27,12.70
2017,11,22,15,28,12.70
2017,11,22,15,29,12.70
2017,11,22,15,30,12.70
2017,11,22,15,31,12.70
2017,11,22,15,32,12.70
2017,11,22,15,33,12.70
2017,11,22,15,34,12.80
2017,11,22,15,35,12.80
2017,11,22,15,36,12.80
2017,11,22,15,37,12.80
2017,11,22,15,38,12.80
2017,11,22,15,39,12.80
2017,11,22,15,40,12.80
2017,11,22,15,41,12.80
2017,11,22,15,42,12.80
2017,11,22,15,43,12.80
2017,11,22,15,44,12.80
2017,11,22,15,45,12.80
2017,11,22,15,46,12.80
2017,11,22,15,47,12.80
2017,11,22,15,48,12.80
2017,11,22,15,49,12.80
2017,11,22,15,50,12.80
2017,11,22,15,51,12.80
2017,11,22,15,52,12.80
2017,11,22,15,53,12.80
2017,11,22,15,54,12.80
2017,11,22,15,55,12.80
2017,11,22,15,56,12.80
2017,11,22,15,57,12.80
2017,11,22,15,58,12.80
2017,11,22,15,59,12.80
2017,11,22,16,00,12.80
2017,11,22,16,01,12.80
2017,11,22,16,02,12.80
2017,11,22,16,03,12.90
2017,11,22,16,04,12.90
2017,11,22,16,05,12.90
2017,11,22,16,06,12.90
2017,11,22,16,07,12.90
2017,11,22,16,08,12.90
2017,11,22,16,09,12.90
2017,11,22,16,10,12.90
2017,11,22,16,11,12.90
2017,11,22,16,12,13.00
2017,11,22,16,13,13.00
2017,11,22,16,14,13.00
2017,11,22,16,15,13.00
2017,11,22,16,16,13.00
2017,11,22,16,17,13.10
2017,11,22,16,18,13.10
2017,11,22,16,19,13.10
2017,11,22,16,20,13.10
2017,11,22,16,21,13.10
2017,11,22,16,22,13.10
2017,11,22,16,23,13.10
2017,11,22,16,24,13.10
2017,11,22,16,25,13.10
2017,11,22,16,26,13.10
2017,11,22,16,27,13.10
2017,11,22,16,28,13.10
2017,11,22,16,29,13.10
2017,11,22,16,30,13.10
2017,11,22,16,31,13.10
2017,11,22,16,32,13.10
2017,11,22,16,33,13.00
2017,11,22,16,34,13.00
2017,11,22,16,35,13.00
2017,11,22,16,36,13.00
2017,11,22,16,37,13.00
2017,11,22,16,38,13.00
2017,11,22,16,39,13.00
2017,11,22,16,40,13.00
2017,11,22,16,41,13.00
2017,11,22,16,42,13.00
2017,11,22,16,43,13.00
2017,11,22,16,44,13.00
2017,11,22,16,45,12.90
2017,11,22,16,46,13.00
2017,11,22,16,47,12.90
2017,11,22,16,48,13.00
2017,11,22,16,49,13.00
2017,11,22,16,50,13.00
2017,11,22,16,51,13.00
2017,11,22,16,52,13.00
2017,11,22,16,53,13.00
2017,11,22,16,54,13.00
2017,11,22,16,55,13.00
2017,11,22,16,56,13.00
2017,11,22,16,57,13.00
2017,11,22,16,58,13.00
2017,11,22,16,59,13.00
2017,11,22,17,00,13.00
2017,11,22,17,01,13.00
2017,11,22,17,02,13.00
2017,11,22,17,03,13.00
2017,11,22,17,04,13.00
2017,11,22,17,05,13.00
2017,11,22,17,06,13.00
2017,11,22,17,07,13.00
2017,11,22,17,08,13.00
2017,11,22,17,09,12.90
2017,11,22,17,10,12.90
2017,11,22,17,11,12.90
2017,11,22,17,12,12.90
2017,11,22,17,13,12.90
2017,11,22,17,14,12.90
2017,11,22,17,15,12.90
2017,11,22,17,16,12.90
2017,11,22,17,17,12.90
2017,11,22,17,18,12.90
2017,11,22,17,19,12.90
2017,11,22,17,20,12.90
2017,11,22,17,21,12.90
2017,11,22,17,22,12.80
2017,11,22,17,23,12.80
2017,11,22,17,24,12.80
2017,11,22,17,25,12.80
2017,11,22,17,26,12.80
2017,11,22,17,27,12.80
2017,11,22,17,28,12.80
2017,11,22,17,29,12.80
2017,11,22,17,30,12.80
2017,11,22,17,31,12.70
2017,11,22,17,32,12.70
2017,11,22,17,33,12.70
2017,11,22,17,34,12.70
2017,11,22,17,35,12.70
2017,11,22,17,36,12.70
2017,11,22,17,37,12.60
2017,11,22,17,38,12.60
2017,11,22,17,39,12.60